Time,TemperatureF,DewpointF,PressureIn,WindDirection,WindDirectionDegrees,WindSpeedMPH,WindSpeedGustMPH,Humidity,HourlyPrecipIn,Conditions,Clouds,dailyrainin,SolarRadiationWatts/m^2,SoftwareType,DateUTC
2013-01-18 00:12:00,22.0,-2.0,-100.00,NNW,340,3.0,14.0,34,0.00,,,0.00,0.000000,,2013-01-18 07:12:00,
2013-01-18 00:22:00,22.0,-2.0,-100.00,NNW,340,3.0,14.0,34,0.00,,,0.00,0.000000,,2013-01-18 07:22:00,
2013-01-18 00:32:00,22.0,-2.0,-100.00,NNW,340,3.0,14.0,34,0.00,,,0.00,0.000000,,2013-01-18 07:32:00,
2013-01-18 00:42:00,22.0,-2.0,-100.00,NNW,340,3.0,14.0,34,0.00,,,0.00,0.000000,,2013-01-18 07:42:00,
2013-01-18 00:52:00,22.0,-2.0,-100.00,NNW,340,3.0,14.0,34,0.00,,,0.00,0.000000,,2013-01-18 07:52:00,
2013-01-18 01:12:00,23.0,-4.0,-100.00,NW,304,5.0,12.0,30,0.00,,,0.00,0.000000,,2013-01-18 08:12:00,
2013-01-18 01:22:00,23.0,-4.0,-100.00,NW,304,5.0,12.0,30,0.00,,,0.00,0.000000,,2013-01-18 08:22:00,
2013-01-18 01:32:00,23.0,-4.0,-100.00,NW,304,5.0,12.0,30,0.00,,,0.00,0.000000,,2013-01-18 08:32:00,
2013-01-18 01:42:00,23.0,-4.0,-100.00,NW,304,5.0,12.0,30,0.00,,,0.00,0.000000,,2013-01-18 08:42:00,
2013-01-18 01:52:00,23.0,-4.0,-100.00,NW,304,5.0,12.0,30,0.00,,,0.00,0.000000,,2013-01-18 08:52:00,
2013-01-18 02:12:00,20.0,-4.0,-100.00,NE,54,3.0,11.0,33,0.00,,,0.00,0.000000,,2013-01-18 09:12:00,
2013-01-18 02:22:00,20.0,-4.0,-100.00,NE,54,3.0,11.0,33,0.00,,,0.00,0.000000,,2013-01-18 09:22:00,
2013-01-18 02:33:00,20.0,-4.0,-100.00,NE,54,3.0,11.0,33,0.00,,,0.00,0.000000,,2013-01-18 09:33:00,
2013-01-18 02:42:00,20.0,-4.0,-100.00,NE,54,3.0,11.0,33,0.00,,,0.00,0.000000,,2013-01-18 09:42:00,
2013-01-18 02:52:00,20.0,-4.0,-100.00,NE,54,3.0,11.0,33,0.00,,,0.00,0.000000,,2013-01-18 09:52:00,
2013-01-18 03:12:00,19.0,-4.0,-100.00,NE,51,4.0,9.0,36,0.00,,,0.00,0.000000,,2013-01-18 10:12:00,
2013-01-18 03:22:00,19.0,-4.0,-100.00,NE,51,4.0,9.0,36,0.00,,,0.00,0.000000,,2013-01-18 10:22:00,
2013-01-18 03:32:00,19.0,-4.0,-100.00,NE,51,4.0,9.0,36,0.00,,,0.00,0.000000,,2013-01-18 10:32:00,
2013-01-18 03:42:00,19.0,-4.0,-100.00,NE,51,4.0,9.0,36,0.00,,,0.00,0.000000,,2013-01-18 10:42:00,
2013-01-18 03:52:00,19.0,-4.0,-100.00,NE,51,4.0,9.0,36,0.00,,,0.00,0.000000,,2013-01-18 10:52:00,
2013-01-18 04:12:00,20.0,-7.0,-100.00,North,6,3.0,13.0,29,0.00,,,-99.99,0.000000,,2013-01-18 11:12:00,
2013-01-18 04:23:00,20.0,-7.0,-100.00,North,6,3.0,13.0,29,0.00,,,-99.99,0.000000,,2013-01-18 11:23:00,
2013-01-18 04:32:00,20.0,-7.0,-100.00,North,6,3.0,13.0,29,0.00,,,-99.99,0.000000,,2013-01-18 11:32:00,
2013-01-18 04:42:00,20.0,-7.0,-100.00,North,6,3.0,13.0,29,0.00,,,-99.99,0.000000,,2013-01-18 11:42:00,
2013-01-18 04:52:00,20.0,-7.0,-100.00,North,6,3.0,13.0,29,0.00,,,-99.99,0.000000,,2013-01-18 11:52:00,
2013-01-18 05:12:00,18.0,-7.0,-100.00,SE,144,2.0,10.0,32,0.00,,,0.00,0.000000,,2013-01-18 12:12:00,
2013-01-18 05:22:00,18.0,-7.0,-100.00,SE,144,2.0,10.0,32,0.00,,,0.00,0.000000,,2013-01-18 12:22:00,
2013-01-18 05:33:00,18.0,-7.0,-100.00,SE,144,2.0,10.0,32,0.00,,,0.00,0.000000,,2013-01-18 12:33:00,
2013-01-18 05:43:00,18.0,-7.0,-100.00,SE,144,2.0,10.0,32,0.00,,,0.00,0.000000,,2013-01-18 12:43:00,
2013-01-18 05:52:00,18.0,-7.0,-100.00,SE,144,2.0,10.0,32,0.00,,,0.00,0.000000,,2013-01-18 12:52:00,
2013-01-18 06:23:00,22.0,-9.0,-100.00,NE,42,5.0,15.0,24,0.00,,,0.00,0.000000,,2013-01-18 13:23:00,
2013-01-18 06:33:00,22.0,-9.0,-100.00,NE,42,5.0,15.0,24,0.00,,,0.00,0.000000,,2013-01-18 13:33:00,
2013-01-18 06:43:00,22.0,-9.0,-100.00,NE,42,5.0,15.0,24,0.00,,,0.00,0.000000,,2013-01-18 13:43:00,
2013-01-18 06:53:00,22.0,-9.0,-100.00,NE,42,5.0,15.0,24,0.00,,,0.00,0.000000,,2013-01-18 13:53:00,
2013-01-18 07:23:00,22.0,-8.0,-100.00,NE,50,6.0,19.0,25,0.00,,,0.00,0.000000,,2013-01-18 14:23:00,
2013-01-18 07:33:00,22.0,-8.0,-100.00,NE,50,6.0,19.0,25,0.00,,,0.00,0.000000,,2013-01-18 14:33:00,
2013-01-18 07:42:00,22.0,-8.0,-100.00,NE,50,6.0,19.0,25,0.00,,,0.00,0.000000,,2013-01-18 14:42:00,
2013-01-18 07:53:00,22.0,-8.0,-100.00,NE,50,6.0,19.0,25,0.00,,,0.00,0.000000,,2013-01-18 14:53:00,
2013-01-18 08:13:00,23.0,-8.0,-100.00,NE,54,4.0,18.0,24,0.00,,,0.00,6.000000,,2013-01-18 15:13:00,
2013-01-18 08:23:00,23.0,-8.0,-100.00,NE,54,4.0,18.0,24,0.00,,,0.00,6.000000,,2013-01-18 15:23:00,
2013-01-18 08:33:00,23.0,-8.0,-100.00,NE,54,4.0,18.0,24,0.00,,,0.00,6.000000,,2013-01-18 15:33:00,
2013-01-18 08:43:00,23.0,-8.0,-100.00,NE,54,4.0,18.0,24,0.00,,,0.00,6.000000,,2013-01-18 15:43:00,
2013-01-18 08:53:00,23.0,-8.0,-100.00,NE,54,4.0,18.0,24,0.00,,,0.00,6.000000,,2013-01-18 15:53:00,
2013-01-18 09:12:00,29.0,-6.0,-100.00,East,98,4.0,12.0,21,0.00,,,0.00,134.000000,,2013-01-18 16:12:00,
2013-01-18 09:23:00,29.0,-6.0,-100.00,East,98,4.0,12.0,21,0.00,,,0.00,134.000000,,2013-01-18 16:23:00,
2013-01-18 09:33:00,29.0,-6.0,-100.00,East,98,4.0,12.0,21,0.00,,,0.00,134.000000,,2013-01-18 16:33:00,
2013-01-18 09:42:00,29.0,-6.0,-100.00,East,98,4.0,12.0,21,0.00,,,0.00,134.000000,,2013-01-18 16:42:00,
2013-01-18 09:52:00,29.0,-6.0,-100.00,East,98,4.0,12.0,21,0.00,,,0.00,134.000000,,2013-01-18 16:52:00,
2013-01-18 10:23:00,34.0,-6.0,-100.00,SW,217,5.0,14.0,17,0.00,,,0.00,283.000000,,2013-01-18 17:23:00,
2013-01-18 10:33:00,34.0,-6.0,-100.00,SW,217,5.0,14.0,17,0.00,,,0.00,283.000000,,2013-01-18 17:33:00,
2013-01-18 10:43:00,34.0,-6.0,-100.00,SW,217,5.0,14.0,17,0.00,,,0.00,283.000000,,2013-01-18 17:43:00,
2013-01-18 10:53:00,34.0,-6.0,-100.00,SW,217,5.0,14.0,17,0.00,,,0.00,283.000000,,2013-01-18 17:53:00,
2013-01-18 11:13:00,39.0,-5.0,-100.00,West,271,4.0,16.0,15,0.00,,,0.00,442.000000,,2013-01-18 18:13:00,
2013-01-18 11:23:00,39.0,-5.0,-100.00,West,271,4.0,16.0,15,0.00,,,0.00,442.000000,,2013-01-18 18:23:00,
2013-01-18 11:33:00,39.0,-5.0,-100.00,West,271,4.0,16.0,15,0.00,,,0.00,442.000000,,2013-01-18 18:33:00,
2013-01-18 11:43:00,39.0,-5.0,-100.00,West,271,4.0,16.0,15,0.00,,,0.00,442.000000,,2013-01-18 18:43:00,
2013-01-18 11:52:00,39.0,-5.0,-100.00,West,271,4.0,16.0,15,0.00,,,0.00,442.000000,,2013-01-18 18:52:00,
2013-01-18 12:12:00,40.0,-1.0,-100.00,South,176,5.0,11.0,17,0.00,,,0.00,518.000000,,2013-01-18 19:12:00,
2013-01-18 12:23:00,40.0,-1.0,-100.00,South,176,5.0,11.0,17,0.00,,,0.00,518.000000,,2013-01-18 19:23:00,
2013-01-18 12:33:00,40.0,-1.0,-100.00,South,176,5.0,11.0,17,0.00,,,0.00,518.000000,,2013-01-18 19:33:00,
2013-01-18 12:43:00,40.0,-1.0,-100.00,South,176,5.0,11.0,17,0.00,,,0.00,518.000000,,2013-01-18 19:43:00,
2013-01-18 12:52:00,40.0,-1.0,-100.00,South,176,5.0,11.0,17,0.00,,,0.00,518.000000,,2013-01-18 19:52:00,
2013-01-18 13:13:00,41.0,-2.0,-100.00,North,4,5.0,14.0,16,0.00,,,0.00,539.000000,,2013-01-18 20:13:00,
2013-01-18 13:23:00,41.0,-2.0,-100.00,North,4,5.0,14.0,16,0.00,,,0.00,539.000000,,2013-01-18 20:23:00,
2013-01-18 13:33:00,41.0,-2.0,-100.00,North,4,5.0,14.0,16,0.00,,,0.00,539.000000,,2013-01-18 20:33:00,
2013-01-18 13:42:00,41.0,-2.0,-100.00,North,4,5.0,14.0,16,0.00,,,0.00,539.000000,,2013-01-18 20:42:00,
2013-01-18 13:52:00,41.0,-2.0,-100.00,North,4,5.0,14.0,16,0.00,,,0.00,539.000000,,2013-01-18 20:52:00,
2013-01-18 14:23:00,42.0,-1.0,-100.00,WNW,301,4.0,18.0,16,0.00,,,0.00,502.000000,,2013-01-18 21:23:00,
2013-01-18 14:33:00,42.0,-1.0,-100.00,WNW,301,4.0,18.0,16,0.00,,,0.00,502.000000,,2013-01-18 21:33:00,
2013-01-18 14:42:00,42.0,-1.0,-100.00,WNW,301,4.0,18.0,16,0.00,,,0.00,502.000000,,2013-01-18 21:42:00,
2013-01-18 14:52:00,42.0,-1.0,-100.00,WNW,301,4.0,18.0,16,0.00,,,0.00,502.000000,,2013-01-18 21:52:00,
2013-01-18 15:12:00,40.0,0.0,-100.00,SE,132,4.0,12.0,18,0.00,,,0.00,410.000000,,2013-01-18 22:12:00,
2013-01-18 15:23:00,40.0,0.0,-100.00,SE,132,4.0,12.0,18,0.00,,,0.00,410.000000,,2013-01-18 22:23:00,
2013-01-18 15:33:00,40.0,0.0,-100.00,SE,132,4.0,12.0,18,0.00,,,0.00,410.000000,,2013-01-18 22:33:00,
2013-01-18 15:42:00,40.0,0.0,-100.00,SE,132,4.0,12.0,18,0.00,,,0.00,410.000000,,2013-01-18 22:42:00,
2013-01-18 15:52:00,40.0,0.0,-100.00,SE,132,4.0,12.0,18,0.00,,,0.00,410.000000,,2013-01-18 22:52:00,
2013-01-18 16:12:00,38.0,-3.0,-100.00,SSW,202,4.0,12.0,17,0.00,,,0.00,273.000000,,2013-01-18 23:12:00,
2013-01-18 16:22:00,38.0,-3.0,-100.00,SSW,202,4.0,12.0,17,0.00,,,0.00,273.000000,,2013-01-18 23:22:00,
2013-01-18 16:33:00,38.0,-3.0,-100.00,SSW,202,4.0,12.0,17,0.00,,,0.00,273.000000,,2013-01-18 23:33:00,
2013-01-18 16:43:00,38.0,-3.0,-100.00,SSW,202,4.0,12.0,17,0.00,,,0.00,273.000000,,2013-01-18 23:43:00,
2013-01-18 16:52:00,38.0,-3.0,-100.00,SSW,202,4.0,12.0,17,0.00,,,0.00,273.000000,,2013-01-18 23:52:00,
2013-01-18 17:22:00,30.0,-4.0,-100.00,ESE,113,3.0,13.0,22,0.00,,,0.00,102.000000,,2013-01-19 00:22:00,
2013-01-18 17:33:00,30.0,-4.0,-100.00,ESE,113,3.0,13.0,22,0.00,,,0.00,102.000000,,2013-01-19 00:33:00,
2013-01-18 17:43:00,30.0,-4.0,-100.00,ESE,113,3.0,13.0,22,0.00,,,0.00,102.000000,,2013-01-19 00:43:00,
2013-01-18 17:53:00,30.0,-4.0,-100.00,ESE,113,3.0,13.0,22,0.00,,,0.00,102.000000,,2013-01-19 00:53:00,
2013-01-18 18:22:00,24.0,-3.0,-100.00,SW,217,4.0,11.0,30,0.00,,,0.00,2.000000,,2013-01-19 01:22:00,
2013-01-18 18:32:00,24.0,-3.0,-100.00,SW,217,4.0,11.0,30,0.00,,,0.00,2.000000,,2013-01-19 01:32:00,
2013-01-18 18:42:00,24.0,-3.0,-100.00,SW,217,4.0,11.0,30,0.00,,,0.00,2.000000,,2013-01-19 01:42:00,
2013-01-18 18:52:00,24.0,-3.0,-100.00,SW,217,4.0,11.0,30,0.00,,,0.00,2.000000,,2013-01-19 01:52:00,
2013-01-18 19:12:00,24.0,-2.0,-100.00,South,183,5.0,14.0,31,0.00,,,0.00,0.000000,,2013-01-19 02:12:00,
2013-01-18 19:22:00,24.0,-2.0,-100.00,South,183,5.0,14.0,31,0.00,,,0.00,0.000000,,2013-01-19 02:22:00,
2013-01-18 19:33:00,24.0,-2.0,-100.00,South,183,5.0,14.0,31,0.00,,,0.00,0.000000,,2013-01-19 02:33:00,
2013-01-18 19:42:00,24.0,-2.0,-100.00,South,183,5.0,14.0,31,0.00,,,0.00,0.000000,,2013-01-19 02:42:00,
2013-01-18 19:52:00,24.0,-2.0,-100.00,South,183,5.0,14.0,31,0.00,,,0.00,0.000000,,2013-01-19 02:52:00,
2013-01-18 20:12:00,21.0,-2.0,-100.00,NNE,26,3.0,12.0,35,0.00,,,0.00,0.000000,,2013-01-19 03:12:00,
2013-01-18 20:22:00,21.0,-2.0,-100.00,NNE,26,3.0,12.0,35,0.00,,,0.00,0.000000,,2013-01-19 03:22:00,
2013-01-18 20:33:00,21.0,-2.0,-100.00,NNE,26,3.0,12.0,35,0.00,,,0.00,0.000000,,2013-01-19 03:33:00,
2013-01-18 20:43:00,21.0,-2.0,-100.00,NNE,26,3.0,12.0,35,0.00,,,0.00,0.000000,,2013-01-19 03:43:00,
2013-01-18 20:52:00,21.0,-2.0,-100.00,NNE,26,3.0,12.0,35,0.00,,,0.00,0.000000,,2013-01-19 03:52:00,
2013-01-18 21:12:00,21.0,-4.0,-100.00,North,11,3.0,9.0,33,0.00,,,0.00,0.000000,,2013-01-19 04:12:00,
2013-01-18 21:22:00,21.0,-4.0,-100.00,North,11,3.0,9.0,33,0.00,,,0.00,0.000000,,2013-01-19 04:22:00,
2013-01-18 21:32:00,21.0,-4.0,-100.00,North,11,3.0,9.0,33,0.00,,,0.00,0.000000,,2013-01-19 04:32:00,
2013-01-18 21:42:00,21.0,-4.0,-100.00,North,11,3.0,9.0,33,0.00,,,0.00,0.000000,,2013-01-19 04:42:00,
2013-01-18 21:52:00,21.0,-4.0,-100.00,North,11,3.0,9.0,33,0.00,,,0.00,0.000000,,2013-01-19 04:52:00,
2013-01-18 22:12:00,20.0,-4.0,-100.00,ENE,68,3.0,9.0,34,0.00,,,0.00,0.000000,,2013-01-19 05:12:00,
2013-01-18 22:23:00,20.0,-4.0,-100.00,ENE,68,3.0,9.0,34,0.00,,,0.00,0.000000,,2013-01-19 05:23:00,
2013-01-18 22:33:00,20.0,-4.0,-100.00,ENE,68,3.0,9.0,34,0.00,,,0.00,0.000000,,2013-01-19 05:33:00,
2013-01-18 22:42:00,20.0,-4.0,-100.00,ENE,68,3.0,9.0,34,0.00,,,0.00,0.000000,,2013-01-19 05:42:00,
2013-01-18 22:52:00,20.0,-4.0,-100.00,ENE,68,3.0,9.0,34,0.00,,,0.00,0.000000,,2013-01-19 05:52:00,
2013-01-18 23:12:00,21.0,-5.0,-100.00,WNW,293,3.0,8.0,31,0.00,,,0.00,0.000000,,2013-01-19 06:12:00,
2013-01-18 23:22:00,21.0,-5.0,-100.00,WNW,293,3.0,8.0,31,0.00,,,0.00,0.000000,,2013-01-19 06:22:00,
2013-01-18 23:32:00,21.0,-5.0,-100.00,WNW,293,3.0,8.0,31,0.00,,,0.00,0.000000,,2013-01-19 06:32:00,
2013-01-18 23:43:00,21.0,-5.0,-100.00,WNW,293,3.0,8.0,31,0.00,,,0.00,0.000000,,2013-01-19 06:43:00,
2013-01-18 23:52:00,21.0,-5.0,-100.00,WNW,293,3.0,8.0,31,0.00,,,0.00,0.000000,,2013-01-19 06:52:00,